Regional Weather Roundup
Issued by NWS Cleveland, OH

Home | Current Version | Previous Version | Text Only | Print | Product List | Glossary On
Versions: 1 2 3 4 5 6 7 8 9 10 11 12 13 14 15 16 17 18 19 20 21 22 23 24 25 26 27 28 29 30 31 32 33 34 35 36 37 38 39 40 41 42 43 44 45 46 47 48 49 50
000
ASUS41 KCLE 202300
RWRCLE
OHIO REGIONAL WEATHER ROUNDUP
NATIONAL WEATHER SERVICE WILMINGTON, OH
600 PM EST MON NOV 20 2017

NOTE: "FAIR" INDICATES FEW OR NO CLOUDS BELOW 12,000 FEET WITH NO
SIGNIFICANT WEATHER AND/OR OBSTRUCTIONS TO VISIBILITY.

OHZ001>008-015>018-024>027-034-035-043-044-210000-
   NORTHWEST OHIO

CITY           SKY/WX    TMP DP  RH WIND       PRES   REMARKS
DEFIANCE       FAIR      43  29  57 S15       29.92F
FINDLAY        FAIR      42  27  55 S18       29.95F
TOLEDO EXPRESS FAIR      44  31  60 S17G26    29.91F
TOLEDO EXEC    FAIR      42  30  62 S13       29.94S
LIMA           FAIR      41  27  57 S14G24    29.96
$$

OHZ009>014-019>023-028>033-038-089-210000-
   NORTHEAST OHIO

CITY           SKY/WX    TMP DP  RH WIND       PRES   REMARKS
CLE-HOPKINS    FAIR      42  26  53 S16       30.00F
CLE-LAKEFRONT  FAIR      44  24  45 S22G31    29.96F
CUY CO. ARPT   PTCLDY    43  25  49 S14G23    29.97F
LORAIN-ELYRIA  FAIR      41  23  48 S13       29.98F
ASHTABULA      FAIR      40  25  55 S13G22    29.98S
AKRON-CANTON   FAIR      39  23  52 S13       30.03S
WOOSTER        NOT AVBL
MANSFIELD      FAIR      39  26  59 S16       30.00F
YOUNGSTOWN     FAIR      39  23  52 S8        30.01S
$$

OHZ042-051>053-060>062-070>072-077>081-210000-
  SOUTHWEST OHIO

CITY           SKY/WX    TMP DP  RH WIND       PRES   REMARKS
CINC-COVINGTON MOCLDY    39  27  62 S7        30.06F
CINC-LUNKEN    FAIR      41  26  55 S8        30.09F
HAMILTON       FAIR      45  26  47 S6        30.07S
DAYTON         NOT AVBL
WRIGHT-PAT AFB FAIR      41  23  48 S9        30.04F
DAYTON GENERAL FAIR      41  25  53 S10       30.04F
WILMINGTON     FAIR      40  28  62 S10       30.07S
$$

OHZ036-037-039>041-045>050-054>059-063>069-073>076-082>088-210000-
  CENTRAL AND SOUTHEAST OHIO

CITY           SKY/WX    TMP DP  RH WIND       PRES   REMARKS
COLUMBUS       MOCLDY    42  26  53 S10       30.06F
OSU AIRPORT    FAIR      42  26  53 S9        30.05S
BOLTON FIELD   CLEAR     39  27  60 S7        30.06F
RICKENBACK AFB NOT AVBL
NEWARK         FAIR      42  23  46 S10       30.07S
MARION         FAIR      41  26  55 S17       30.02S
LANCASTER      FAIR      39  25  57 S7        30.08S
ZANESVILLE     FAIR      39  23  52 S8        30.09F
NEW PHILLY     FAIR      41  23  48 S6        30.08S
$$




USA.gov is the U.S. government's official web portal to all federal, state and local government web resources and services.